Weather in Bratslavka

Russia / Orenburg Oblast     51°40′17″N   60°16′20″E
temp.,
°C
wind,
m/s
gust,
m/s
humid.,
%
clouds,
%
prec.,
mm/h
press.,
hPa
HPBL,
m
4 august, wed
wed423:00+25nne223314 0.0 101411
02:00+24nw223683 0.0 101411
05:00+23wsw2233100 0.0 101411
08:00+26ssw3531100 0.0 1014141
11:00+32sw342439 0.0 1013886
14:00+35w36198 0.0 10123506
17:00+32nw10928100 0.0 1011774
20:00+25nne364525 0.1 1013134
5 august, thu
thu523:00+24nnw344312 0.1 101349
02:00+23ene45475 0.0 101369
05:00+22ese33502 0.0 101227
08:00+26sw234079 0.0 1012191
11:00+32sse332855 0.0 1011685
14:00+35sw3320100 0.0 10102178
17:00+36ssw3417100 0.0 10083753
20:00+30ssw222690 0.0 100725
6 august, fri
fri623:00+24e144672 0.3 1010104
02:00+22se3353100 0.2 100940
05:00+21ne455799 0.3 100961
08:00+24ese455068 0.1 1008289
11:00+28nw1234100 0.1 10081050
14:00+31nnw5433100 0.0 10081702
17:00+31nnw45290 0.0 10082447
20:00+25nne10134918 0.0 1010541
7 august, sat
sat723:00+22nne712548 0.0 1012512
02:00+19n51159100 0.0 1013308
05:00+17nne511665 0.0 1014323
08:00+19nne686482 0.0 1016457
11:00+23nne56435 0.0 10161293
14:00+26nne5533100 0.0 10151935
17:00+27nne45294 0.0 10152253
20:00+24ne33355 0.0 101537
8 august, sun
sun823:00+20nne22420 0.0 101712
02:00+18nne34484 0.0 101759
05:00+16ne3452100 0.0 101863
08:00+20nne334417 0.0 1019244
11:00+24nnw4535100 0.0 10191276
14:00+28nnw58320 0.0 10172015
17:00+29nnw78313 0.0 10172282
20:00+25nne47395 0.0 1017162